Tracking 18945 objects as of 20-Jan-2018
HD Live streaming from Space Station
objects crossing your sky now

FENGYUN 1C DEB

Track FENGYUN 1C DEB now!
10-day predictions


NORAD ID: 30496
Int'l Code: 1999-025AHJ
Perigee: 533.9 km
Apogee: 800.1 km
Inclination: 98.8 °
Period: 97.9 minutes
Semi major axis: 7038 km
RCS: 0.0065 m2 (small)
Launch date: May 10, 1999
Source: People's Republic of China (PRC)
Launch site: Taiyaun Space Center, China (TSC)

Note: This is SATELLITE DEBRIS
aabbcc
Your satellite tracking list
Your tracking list is empty




NASA's NSSDC Master Catalog

Two Line Element Set (TLE):
1 30496U 99025AHJ 18019.83361044 +.00000285 +00000-0 +44900-4 0  9991
2 30496 098.8219 345.5386 0189127 165.7684 194.8953 14.70373675586113
Source of the keplerian elements: AFSPC